Simultaneous Nadir Overpasses (SNOs) Predictions

Prediction of SNOs between LANDSAT-8 and METOP-A Satellite Orbit:

Table of predicted SNOs for the next 14.0 days since TLE Epoch: 10/17/2015
Index Date (LANDSAT-8) Time (LANDSAT-8) Lat,Lon (LANDSAT-8) SZA (LANDSAT-8 ) Date (METOP-A) Time (METOP-A) Lat,Lon (METOP-A) SZA (METOP-A ) Distance(km) Time Diff (sec)
1 10/19/2015 10:43:01 -81.15,-120.30 86.49 10/19/2015 10:41:48 -81.16,-120.46 86.53 2.74 73
2 10/19/2015 11:32:26 81.18, 47.80 93.60 10/19/2015 11:32:26 81.19, 47.94 93.62 2.37 0
3 10/19/2015 12:21:52 -81.20,-144.24 86.34 10/19/2015 12:23:05 -81.21,-144.09 86.29 2.51 73
4 10/22/2015 06:17:17 -81.17, -53.56 85.42 10/22/2015 06:16:05 -81.17, -53.51 85.45 0.85 72
5 10/22/2015 07:06:43 81.18, 114.16 94.60 10/22/2015 07:06:45 81.18, 114.10 94.60 1.02 2
6 10/22/2015 07:55:43 -81.65, -67.70 83.90 10/22/2015 07:56:57 -81.35, -67.37 84.00 34.27 74
7 10/25/2015 01:51:34 -81.16, 12.73 84.46 10/25/2015 01:50:24 -81.16, 12.68 84.49 0.85 70
8 10/25/2015 02:40:59 81.19,-179.21 95.62 10/25/2015 02:41:03 81.18,-179.37 95.60 2.77 4
9 10/27/2015 21:25:49 -81.17, 79.30 83.47 10/27/2015 21:24:41 -81.17, 79.25 83.51 0.98 68
10 10/27/2015 22:15:15 81.17,-113.04 96.55 10/27/2015 22:15:21 81.18,-113.22 96.53 3.13 6
11 10/30/2015 17:00:05 -81.18, 145.78 82.53 10/30/2015 16:58:59 -81.17, 145.81 82.56 0.58 66
